{"data":{"norad_id":67363,"epoch":"2026-09-18T23:15:45.042048Z","epoch_age_seconds":146737,"freshness":"FRESH","line1":"1 67363U 26004A   26261.96927132  .00002306  00000+0  25136-3 0  9993","line2":"2 67363  97.8092 259.1591 0008393 180.2204 179.9011 14.88914603 37231","mean_motion":14.88914603,"eccentricity":0.0008393,"inclination_deg":97.8092,"raan_deg":259.1591,"arg_perigee_deg":180.2204,"mean_anomaly_deg":179.9011,"bstar":0.00025136,"rev_number":3723,"period_min":96.714747581799,"perigee_km":595.46769395573,"apogee_km":607.18341980371,"semimajor_km":6979.4625568797,"source":"CELESTRAK","updated_at":"2026-09-20T09:00:34.881220Z"}}